STARLINK-1920 (46751 NORAD) Tracking and Keplerian Element Data

This shows tracking and keplerian element data for the satellite.

Feedback or suggestion? Click here.




ElementValue
Catalog46751
NameSTARLINK-1920
Epoch Orbit181
Epoch Day330.91667824
Epoch Year2020
RAAN1.9965
Inclination53.0551
Eccentricity0.0001205
Argument of Perigee84.9844
Mean Anonmoly162.0943
Mean Motion15.62735516
Decay Rate0.00053402
L11 46751U 20074N 20330.91667824 .00053402 00000-0 58563-3 0 9991
L22 46751 53.0551 1.9965 0001205 84.9844 162.0943 15.62735516 1815

Live tracking and technical data element details for STARLINK-1920 (NORAD 46751). STARLINK-1920 can be tracked NOW for your location showing map with azimuth and elevation plus other details from your city location.

Track the satellite on the map from your city or location and see movement details for azimuth, elevation, latitude, longitude, range, height, and movement on the map or in text.







IsCatalogInMostPopularTable: catalog: 46751, numindb: 6
Update: records affected: 1



GetName: 46751 STARLINK-1920

Hit Count: updated at: Thu, 26 Nov 2020 21:46:49 GMT